Home > Time Zones > World Clock > Weather > Iran > Kerman > Past weeks

Flag for Iran Weather past 2 weeks in Kerman, Iran

Now
84 °F

Scattered clouds.


Feels Like: 81 °F
Forecast: 54 / 90 °F
Wind: 12 mph from Northwest

Location: Kerman Airport

Current Time: Aug 1, 2015 at 12:57:21 PM

Latest Report: Aug 1, 2015 at 12:30 PM


Visibility: N/A

Pressure: 30.07 "Hg (24.64 "Hg at 1762m altitude)

Humidity: 14%

Dew point: 30 °F

Location of KermanLocation

Historic Weather in Kerman — Graph

°F

Kerman temperature yesterday

Maximum temperature yesterday: 88 °F (at 1:30 PM)
Minimum temperature yesterday: 63 °F (at 6:30 AM)
Average temperature yesterday: 79 °F

Past Weeks' High & Low Weather Summary

 TemperatureHumidityPressure
High97 °F (Jul 19, 2:30 PM)83% (Jul 23, 4:30 AM)30.12 "Hg (Jul 23, 4:30 AM)
Low59 °F (Jul 27, 5:30 AM)4% (Jul 30, 5:30 PM)29.74 "Hg (Jul 17, 8:30 PM)
Average81 °F21%29.97 "Hg
* Reported Jul 17 11:30 AM — Aug 1 11:30 AM, Kerman, Weather by CustomWeather, © 2015

Note: Actual official high and low records may vary slightly from our data, if they occured in-between our weather recording intervals... More about our weather records

Advertising

Kerman weather history for previous 24 hours

 ConditionsComfort  
Time TempWeatherWind HumidityBarometerVisibility
11:30 AM
Sat, Aug 1
82 °FPassing clouds.14 mph15%30.07 "HgN/A
10:30 AM81 °FPassing clouds.14 mph16%30.07 "HgN/A
10:00 AM81 °FPassing clouds.14 mph16%30.07 "HgN/A
9:30 AM79 °FPassing clouds.9 mph17%30.07 "HgN/A
8:30 AM73 °FSunny.12 mph20%30.07 "Hg10 mi
7:30 AM64 °FSunny.5 mph24%30.07 "Hg10 mi
6:30 AM61 °FClear.No wind27%30.04 "Hg10 mi
5:30 AM66 °FClear.5 mph22%30.04 "Hg10 mi
4:30 AM68 °FClear.7 mph21%30.01 "Hg10 mi
3:30 AM70 °FClear.7 mph20%30.01 "Hg10 mi
2:30 AM70 °FClear.9 mph20%30.01 "Hg10 mi
1:30 AM70 °FClear.12 mph18%30.01 "Hg10 mi
12:30 AM72 °FClear.7 mph19%30.04 "Hg10 mi
11:30 PM
Fri, Jul 31
73 °FClear.9 mph16%30.04 "Hg10 mi
10:30 PM75 °FClear.12 mph14%30.04 "Hg10 mi
9:30 PM77 °FClear.12 mph13%30.01 "Hg10 mi
8:30 PM81 °FSunny.14 mph12%30.01 "Hg10 mi
7:30 PM84 °FPassing clouds.16 mph10%29.98 "HgN/A
6:30 PM86 °FPassing clouds.21 mph10%29.98 "HgN/A
6:00 PM88 °FPassing clouds.21 mph9%29.98 "HgN/A
5:30 PM88 °FPassing clouds.21 mph9%29.98 "HgN/A
5:00 PM88 °FPassing clouds.N/A8%29.98 "HgN/A
4:30 PM88 °FPassing clouds.14 mph8%29.98 "HgN/A
3:20 PM88 °FPassing clouds.14 mph9%29.98 "HgN/A
2:30 PM88 °FPassing clouds.18 mph8%29.98 "HgN/A
1:30 PM88 °FPassing clouds.14 mph9%30.01 "HgN/A
12:30 PM86 °FPassing clouds.18 mph11%30.01 "HgN/A
Weather by CustomWeather, © 2015

See weather overviewHow to use our weather pages